Flag for U.S.A. Weather past 2 weeks in Sunrise Manor, Nevada, U.S.A.

Now
82 °F

Sunny.


Feels Like: 80 °F
Forecast: 62 / 83 °F
Wind: 20 mph from South

Location: Nellis Air Force Base

Current Time: May 5, 2015 at 9:26:26 PM

Latest Report: May 5, 2015 at 6:58 PM


Visibility: 10 mi

Pressure: 29.59 "Hg

Humidity: 27%

Dew point: 45 °F

Location of Sunrise ManorLocation

Historic Weather in Sunrise Manor — Graph

°F

Sunrise Manor temperature yesterday

Maximum temperature yesterday: 79 °F (at 9:58 AM)
Minimum temperature yesterday: 66 °F (at 5:58 AM)
Average temperature yesterday: 74 °F

Past Weeks' High & Low Weather Summary

 TemperatureHumidityPressure
High94 °F (May 1, 2:58 PM)95% (Apr 26, 1:58 AM)30.05 "Hg (Apr 26, 1:58 AM)
Low51 °F (Apr 26, 6:58 AM)5% (Apr 21, 5:58 PM)29.57 "Hg (Apr 25, 3:58 PM)
Average73 °F25%29.76 "Hg
* Reported Apr 20 6:58 PM — May 5 6:58 PM, Sunrise Manor, Weather by CustomWeather, © 2015

Note: Actual official high and low records may vary slightly from our data, if they occured in-between our weather recording intervals... More about our weather records

Advertising

Sunrise Manor weather history for previous 24 hours

 ConditionsComfort  
Time TempWeatherWind HumidityBarometerVisibility
6:58 PM
Tue, May 5
82 °FSunny.20 mph27%29.59 "Hg10 mi
4:58 PM85 °FSunny.17 mph22%29.60 "Hg10 mi
3:58 PM85 °FSunny.8 mph25%29.63 "Hg10 mi
2:58 PM83 °FPassing clouds.10 mph26%29.66 "Hg10 mi
1:58 PM82 °FSunny.9 mph24%29.70 "Hg10 mi
12:58 PM78 °FSunny.6 mph30%29.73 "Hg10 mi
11:58 AM77 °FSunny.8 mph33%29.77 "Hg10 mi
10:58 AM74 °FPassing clouds.6 mph38%29.79 "Hg10 mi
9:58 AM72 °FSunny.5 mph40%29.81 "Hg10 mi
8:58 AM70 °FSunny.12 mph47%29.80 "Hg10 mi
7:58 AM68 °FSunny.13 mph53%29.80 "Hg10 mi
6:58 AMN/A12 mphN/AN/AN/A
5:58 AM65 °FOvercast.7 mph57%29.77 "Hg10 mi
4:58 AM66 °FOvercast.3 mph51%29.76 "Hg10 mi
3:58 AM65 °FClear.5 mph51%29.76 "Hg10 mi
2:58 AM67 °FPassing clouds.No wind49%29.77 "Hg10 mi
1:58 AM68 °FOvercast.9 mph48%29.77 "Hg10 mi
12:58 AM69 °FPassing clouds.5 mph45%29.79 "Hg10 mi
11:58 PM
Mon, May 4
70 °FPassing clouds.7 mph40%29.79 "Hg10 mi
10:58 PM71 °FPassing clouds.7 mph39%29.78 "Hg10 mi
9:58 PM72 °FPassing clouds.1 mph36%29.75 "Hg10 mi
Weather by CustomWeather, © 2015

See weather overviewHow to use our weather pages